{"data":{"norad_id":56079,"epoch":"2026-05-25T01:54:51.448896Z","epoch_age_seconds":67850,"freshness":"FRESH","line1":"1 56079U 23043AK  26145.07976214  .00000255  00000+0  64417-3 0  9999","line2":"2 56079  87.8989 263.8318 0001894  95.5327 264.6019 13.15547534153388","mean_motion":13.15547534,"eccentricity":0.0001894,"inclination_deg":87.8989,"raan_deg":263.8318,"arg_perigee_deg":95.5327,"mean_anomaly_deg":264.6019,"bstar":0.00064417,"rev_number":15338,"period_min":109.46012688889,"perigee_km":1200.3390348427,"apogee_km":1203.2103053833,"semimajor_km":7579.911670113,"source":"CELESTRAK","updated_at":"2026-05-25T13:38:22.707353Z"}}